Regional Weather Roundup
Issued by NWS

Home | Current Version | Previous Version | Graphics & Text | Print | Product List | Glossary On
Versions: 1 2 3 4 5 6 7 8 9 10 11 12 13 14 15 16 17 18 19 20 21 22 23 24 25 26 27 28 29 30 31 32 33 34 35 36 37 38 39 40 41 42 43 44 45 46 47 48 49 50
000
ASUS45 KABQ 200901
RWRNM
NEW MEXICO REGIONAL WEATHER ROUNDUP
NATIONAL WEATHER SERVICE ALBUQUERQUE NM
300 AM MDT THU JUL 20 2017

NOTE: "FAIR" MEANS FEW OR NO CLOUDS BELOW 12,000 FEET AGL WITH NO
       SIGNIFICANT WEATHER OR OBSTRUCTIONS TO VISION.

      THIS PRODUCT IS RELEASED AS TWO VERSIONS.  ONE VERSION NEAR
      THE TOP OF THE HOUR CONTAINING PRELIMINARY DATA FROM ALBUQUERQUE
      AND OTHER STATIONS.  A FINAL VERSION WITH ADDITIONAL DATA IS
      ISSUED ABOUT 10 MINUTES AFTER THE HOUR.

NMZ501-503-504-510>518-201000-
NORTHWEST PLATEAU/NORTHCENTRAL MOUNTAINS

CITY           SKY/WX    TMP DP  RH WIND       PRES   REMARKS
FARMINGTON     FAIR      68  51  54 W3        30.21R
LOS ALAMOS     FAIR      67  45  45 CALM      30.39S
SANTA FE       FAIR      63  54  72 W3        30.34R
TAOS           FAIR      57  39  51 CALM        N/A
ANGEL FIRE     FAIR      47  44  88 CALM      30.48S

$$
NMZ402-403-502-505>509-201000-
WESTCENTRAL MOUNTAINS/SOUTHWEST MOUNTAINS

CITY           SKY/WX    TMP DP  RH WIND       PRES   REMARKS
GALLUP         FAIR      64  54  69 VRB3      30.31R
GRANTS         FAIR      62  49  64 SE6       30.35R
SILVER CITY    FAIR      60  53  77 N7        30.27F

$$
NMZ407-409-411-412-201000-
SOUTHERN DESERTS

CITY           SKY/WX    TMP DP  RH WIND       PRES   REMARKS
DEMING         FAIR      65  61  87 NE3       30.19F
LAS CRUCES     MOCLDY    68  59  73 SE3       30.22R
HOLLOMAN AFB   FAIR      68  61  79 N6        30.21F
ALAMOGORDO     FAIR      66  59  77 CALM      30.22R
T OR C         FAIR      67  61  81 NW7       30.24F

$$
NMZ519>523-201000-
CENTRAL VALLEYS/CENTRAL HIGHLANDS

CITY           SKY/WX    TMP DP  RH WIND       PRES   REMARKS
ALBUQUERQUE    MOCLDY    70  53  54 S5        30.29R
DOUBLE EAGLE   FAIR      62  51  65 S9        30.32S
MORIARTY ARPT  FAIR      62  56  82 CALM      30.36S
CLINES CORNERS FAIR      58  52  80 W9        30.40R
BELEN          NOT AVBL
SOCORRO        FAIR      67  58  72 S9        30.24F

$$
NMZ524>526-539-540-201000-
SOUTHCENTRAL MOUNTAINS

CITY           SKY/WX    TMP DP  RH WIND       PRES   REMARKS
RUIDOSO        FAIR      63  46  55 CALM      30.39R

$$
NMZ527>531-201000-
NORTHEAST HIGHLANDS/NORTHEAST PLAINS

CITY           SKY/WX    TMP DP  RH WIND       PRES   REMARKS
LAS VEGAS      FAIR      59  49  69 S13       30.35S
RATON          FAIR      60  47  61 N7        30.29S
CLAYTON        FAIR      70  58  65 SW15      30.20S

$$
NMZ532>537-201000-
EASTCENTRAL PLAINS

CITY           SKY/WX    TMP DP  RH WIND       PRES   REMARKS
SANTA ROSA     FAIR      67  57  71 SE7       30.23S
TUCUMCARI      FAIR      71  59  65 SW8       30.16S
CANNON AFB     FAIR      68  61  77 SW5       30.23S
CLOVIS AIRPORT FAIR      67  57  70 SW6       30.23R

$$
NMZ028-029-538-201000-
SOUTHEAST PLAINS

CITY           SKY/WX    TMP DP  RH WIND       PRES   REMARKS
ROSWELL        FAIR      71  57  61 SE5       30.17S
ARTESIA        FAIR      72  57  60 W3        30.17S
CARLSBAD       FAIR      71  60  68 SE5       30.13F
HOBBS          FAIR      66  63  88 CALM      30.21R


$$



USA.gov is the U.S. government's official web portal to all federal, state and local government web resources and services.